Weather History for KNBC - May, 2013

Change the Weather History Date:

Monday, May 27, 2013

  Actual Average Record
Temperature  
Mean Temperature 72 °F -  
Max Temperature 84 °F 84 °F 100 °F (1962)
Min Temperature 61 °F 66 °F 51 °F (1961)
Cooling Degree Days 8    
Growing Degree Days 22 (Base 50)    
Moisture  
Dew Point 61 °F    
Average Humidity 76    
Maximum Humidity 97    
Minimum Humidity 46    
Precipitation  
Precipitation 0.00 in - - ()
Sea Level Pressure  
Sea Level Pressure 30.22 in    
Wind  
Wind Speed 1 mph (SSE)    
Max Wind Speed 9 mph    
Max Gust Speed -    
Visibility 7 miles    
Events Fog    
Averages and records for this station are not official NWS values.
T = Trace of Precipitation, MM = Missing Value Source: NWS Daily Summary

Daily Weather History Graph

Daily Weather History Graph

Search for Another Location

Airport or City:

Trip Planner

Search our weather history database for the weather conditions in past years. The results will help you decide how hot, cold, wet, or windy it might be!

Date:

Astronomy

May. 27, 2013 Rise Set
Actual Time 6:18 AM EDT 8:22 PM EDT
Civil Twilight 5:50 AM EDT 8:50 PM EDT
Nautical Twilight 5:16 AM EDT 9:24 PM EDT
Astronomical Twilight 4:40 AM EDT 10:00 PM EDT
Moon 11:04 PM EDT (5/27) 8:51 AM EDT (5/27)
Length of Visible Light 15h 00m
Length of Day
14h 04m
Waning Gibbous, 91% of the Moon is Illuminated
May 27
Waning Gibbous
May 31
Last Quarter
Jun 8
New
Jun 16
First Quarter
Jun 23
Full

Hourly Weather History & Observations

Time (EDT) Temp. Heat Index Dew Point Humidity Pressure Visibility Wind Dir Wind Speed Gust Speed Precip Events Conditions
12:56 AM 66.0 °F - 61.0 °F 84% 30.22 in 10.0 mi Calm Calm - N/A   Clear
1:56 AM 64.9 °F - 60.1 °F 84% 30.21 in 10.0 mi Calm Calm - N/A   Clear
2:56 AM 64.0 °F - 60.1 °F 87% 30.20 in 10.0 mi Calm Calm - N/A   Clear
3:24 AM 63.0 °F - 60.1 °F 90% 30.20 in 1.2 mi Calm Calm - N/A   Partly Cloudy
3:26 AM 63.0 °F - 60.1 °F 90% 30.20 in 0.8 mi Calm Calm - N/A   Mist
3:31 AM 63.0 °F - 61.0 °F 93% 30.20 in 0.2 mi Calm Calm - N/A Fog Fog
3:41 AM 63.0 °F - 60.1 °F 90% 30.20 in 0.8 mi Calm Calm - N/A   Mist
3:43 AM 63.0 °F - 60.1 °F 90% 30.20 in 1.2 mi Calm Calm - N/A   Partly Cloudy
3:45 AM 63.0 °F - 60.1 °F 90% 30.20 in 4.0 mi Calm Calm - N/A   Partly Cloudy
3:56 AM 63.0 °F - 60.1 °F 90% 30.20 in 10.0 mi Calm Calm - N/A   Clear
4:56 AM 63.0 °F - 60.1 °F 90% 30.21 in 10.0 mi Calm Calm - N/A   Clear
5:56 AM 63.0 °F - 59.0 °F 87% 30.22 in 10.0 mi Calm Calm - N/A   Clear
6:12 AM 63.0 °F - 60.1 °F 90% 30.22 in 1.5 mi Calm Calm - N/A   Clear
6:14 AM 62.1 °F - 60.1 °F 93% 30.22 in 0.8 mi Calm Calm - N/A   Clear
6:18 AM 62.1 °F - 60.1 °F 93% 30.22 in 0.2 mi Calm Calm - N/A Fog Fog
6:28 AM 62.1 °F - 60.1 °F 93% 30.23 in 0.8 mi Calm Calm - N/A   Clear
6:30 AM 62.1 °F - 60.1 °F 93% 30.23 in 1.5 mi Calm Calm - N/A   Clear
6:37 AM 61.0 °F - 60.1 °F 97% 30.23 in 10.0 mi Calm Calm - N/A   Clear
6:56 AM 63.0 °F - 60.1 °F 90% 30.24 in 10.0 mi Calm Calm - N/A   Clear
7:15 AM 64.9 °F - 61.0 °F 87% 30.24 in 10.0 mi Calm Calm - N/A   Partly Cloudy
7:56 AM 70.0 °F - 64.0 °F 81% 30.24 in 10.0 mi Calm Calm - N/A   Clear
8:56 AM 75.0 °F - 64.0 °F 69% 30.25 in 10.0 mi Variable 3.5 mph - N/A   Clear
9:56 AM 78.1 °F - 63.0 °F 60% 30.25 in 10.0 mi Variable 3.5 mph - N/A   Clear
10:56 AM 81.0 °F 81.7 °F 61.0 °F 50% 30.25 in 10.0 mi SE 3.5 mph - N/A   Partly Cloudy
11:56 AM 82.9 °F 83.2 °F 60.1 °F 46% 30.25 in 10.0 mi SSE 4.6 mph - N/A   Partly Cloudy
12:56 PM 82.0 °F 83.4 °F 64.0 °F 54% 30.24 in 10.0 mi East 9.2 mph - N/A   Clear
1:56 PM 84.0 °F 84.9 °F 63.0 °F 49% 30.23 in 10.0 mi SSE 4.6 mph - N/A   Clear
2:56 PM 82.0 °F 82.7 °F 61.0 °F 49% 30.22 in 10.0 mi SSE 5.8 mph - N/A   Clear
3:56 PM 82.9 °F 84.0 °F 63.0 °F 51% 30.21 in 10.0 mi South 4.6 mph - N/A   Clear
4:56 PM 82.0 °F 83.1 °F 63.0 °F 52% 30.20 in 10.0 mi South 6.9 mph - N/A   Clear
5:56 PM 80.1 °F 81.2 °F 62.1 °F 54% 30.18 in 10.0 mi South 6.9 mph - N/A   Clear
6:56 PM 75.9 °F - 62.1 °F 62% 30.18 in 10.0 mi South 4.6 mph - N/A   Clear
7:56 PM 75.0 °F - 63.0 °F 66% 30.19 in 10.0 mi South 4.6 mph - N/A   Clear
8:56 PM 73.9 °F - 64.0 °F 71% 30.21 in 10.0 mi South 3.5 mph - N/A   Clear
9:56 PM 73.9 °F - 64.0 °F 71% 30.22 in 10.0 mi SSE 4.6 mph - N/A   Clear
10:56 PM 73.9 °F - 64.0 °F 71% 30.23 in 10.0 mi SSE 3.5 mph - N/A   Clear
11:56 PM 73.9 °F - 64.0 °F 71% 30.23 in 10.0 mi South 3.5 mph - N/A   Clear